DW2513 Weather Reports


Display with metric or nautical units.
time (UTC)temp
F
wind
direction
speed
MPH
gust
MPH
rain 1hr
in
rain 24hr
in
rain mn
in
humidity
%
barometer
mb
20260505210805 65 189 2.0 12.0 0.03 0.03 0.03 66 1000.9
20260505205305 79 152 6.0 13.0 0.00 0.00 0.00 28 998.8
20260505203304 81 109 0.0 3.0 0.00 0.00 0.00 23 998.8
20260505202805 81 109 2.0 9.0 0.00 0.00 0.00 23 998.8
20260505202307 81 105 2.0 6.0 0.00 0.00 0.00 23 998.8
20260505201805 81 114 2.0 10.0 0.00 0.00 0.00 24 998.8
20260505200305 81 91 2.0 7.0 0.00 0.00 0.00 23 998.8
20260505195305 82 187 2.0 10.0 0.00 0.00 0.00 22 998.8
20260505194804 82 214 2.0 7.0 0.00 0.00 0.00 22 998.8
20260505193805 82 188 1.0 7.0 0.00 0.00 0.00 22 998.8
20260505192805 81 167 3.0 12.0 0.00 0.00 0.00 23 998.9
20260505191805 82 130 1.0 6.0 0.00 0.00 0.00 22 998.9
20260505190305 82 128 2.0 9.0 0.00 0.00 0.00 22 999.0
20260505185804 82 73 1.0 10.0 0.00 0.00 0.00 22 1000.4
20260505185305 82 157 0.0 12.0 0.00 0.00 0.00 22 1000.4
20260505184805 81 171 2.0 5.0 0.00 0.00 0.00 22 1000.4
20260505184305 81 139 1.0 7.0 0.00 0.00 0.00 22 1000.4
20260505182306 81 207 1.0 3.0 0.00 0.00 0.00 22 1000.4
20260505181805 82 135 2.0 12.0 0.00 0.00 0.00 21 1000.4
20260505175804 82 131 2.0 10.0 0.00 0.00 0.00 22 1000.4
20260505174304 81 173 3.0 9.0 0.00 0.00 0.00 23 1000.4
20260505173805 81 137 3.0 7.0 0.00 0.00 0.00 24 1000.4
20260505173304 81 16 1.0 6.0 0.00 0.00 0.00 26 1000.6
20260505171804 80 178 1.0 6.0 0.00 0.00 0.00 27 1000.6
20260505171305 81 181 1.0 3.0 0.00 0.00 0.00 27 1000.6
20260505170804 82 183 2.0 7.0 0.00 0.00 0.00 26 1000.6
20260505170305 82 112 1.0 10.0 0.00 0.00 0.00 24 1000.6
20260505165804 81 84 3.0 9.0 0.00 0.00 0.00 25 1000.6
20260505165306 80 134 3.0 12.0 0.00 0.00 0.00 27 1000.8
20260505163804 78 175 2.0 7.0 0.00 0.00 0.00 29 1001.0
20260505162804 78 190 1.0 3.0 0.00 0.00 0.00 30 1001.3
20260505161804 77 186 2.0 6.0 0.00 0.00 0.00 31 1002.1
20260505161304 77 188 1.0 6.0 0.00 0.00 0.00 31 1002.1
20260505153305 73 180 1.0 3.0 0.00 0.00 0.00 36 1003.6
20260505152805 73 190 1.0 3.0 0.00 0.00 0.00 35 1003.6
20260505151804 72 200 0.0 0.0 0.00 0.00 0.00 36 1003.6
20260505151304 72 177 0.0 2.0 0.00 0.00 0.00 36 1003.6
20260505150804 72 159 0.0 6.0 0.00 0.00 0.00 36 1003.6
20260505140304 67 171 0.0 1.0 0.00 0.00 0.00 43 1004.1
20260505124804 58 224 0.0 3.0 0.00 0.00 0.00 55 1004.0
20260505124304 58 121 0.0 1.0 0.00 0.00 0.00 55 1003.9
20260505123804 57 133 1.0 3.0 0.00 0.00 0.00 56 1003.9
20260505123304 57 177 0.0 1.0 0.00 0.00 0.00 57 1003.9
20260505122804 57 121 0.0 3.0 0.00 0.00 0.00 56 1003.9
20260505122305 56 166 0.0 3.0 0.00 0.00 0.00 57 1003.9
20260505121304 56 226 0.0 1.0 0.00 0.00 0.00 56 1003.8
20260505120304 57 178 0.0 2.0 0.00 0.00 0.00 56 1003.8
20260505115804 57 219 0.0 0.0 0.00 0.00 0.00 55 1003.8
20260505115305 56 219 0.0 2.0 0.00 0.00 0.00 56 1003.8
20260505114304 56 186 0.0 2.0 0.00 0.00 0.00 57 1003.8
20260505113805 55 180 0.0 3.0 0.00 0.00 0.00 57 1003.8
20260505113305 55 180 0.0 2.0 0.00 0.00 0.00 58 1003.8
20260505112804 55 180 0.0 1.0 0.00 0.00 0.00 58 1003.8
20260505112305 54 180 1.0 7.0 0.00 0.00 0.00 60 1003.8
20260505110805 54 331 0.0 2.0 0.00 0.00 0.00 61 1003.8
20260505101304 50 194 0.0 0.0 0.00 0.00 0.00 65 1003.8
20260505095804 51 194 0.0 0.0 0.00 0.00 0.00 65 1003.8
20260505094305 51 202 0.0 0.0 0.00 0.00 0.00 64 1003.8
20260505092804 51 70 0.0 0.0 0.00 0.00 0.00 63 1003.8
20260505092305 51 70 0.0 1.0 0.00 0.00 0.00 63 1004.1
20260505091804 51 128 0.0 0.0 0.00 0.00 0.00 62 1004.1
20260505091304 51 174 0.0 0.0 0.00 0.00 0.00 63 1004.1
20260505085804 51 91 0.0 3.0 0.00 0.00 0.00 64 1004.1
20260505085305 51 85 0.0 0.0 0.00 0.00 0.00 64 1004.1
20260505084804 51 85 0.0 0.0 0.00 0.00 0.00 64 1004.1
20260505084305 51 85 0.0 1.0 0.00 0.00 0.00 64 1004.1
20260505083804 51 300 0.0 0.0 0.00 0.00 0.00 64 1004.1
20260505082805 51 301 0.0 0.0 0.00 0.00 0.00 64 1004.1
20260505082305 51 293 0.0 2.0 0.00 0.00 0.00 64 1004.1
20260505081304 51 288 0.0 0.0 0.00 0.00 0.00 64 1004.1
20260505080804 51 288 0.0 0.0 0.00 0.00 0.00 63 1004.1
20260505075805 51 288 0.0 0.0 0.00 0.00 0.00 62 1004.1
20260505075304 51 288 0.0 0.0 0.00 0.00 0.00 62 1004.1
20260505074304 51 288 0.0 0.0 0.00 0.00 0.00 61 1004.4
20260505072804 52 288 0.0 0.0 0.00 0.00 0.00 60 1004.4
20260505072305 52 288 0.0 0.0 0.00 0.00 0.00 60 1004.4
20260505070804 52 288 0.0 0.0 0.00 0.00 0.00 59 1004.4
20260505065305 53 288 0.0 0.0 0.00 0.00 0.00 59 1004.4
20260505063804 53 288 0.0 0.0 0.00 0.00 0.00 58 1004.6
20260505062804 53 292 0.0 0.0 0.00 0.00 0.00 57 1004.6
20260505061804 54 292 0.0 0.0 0.00 0.00 0.00 56 1004.6
20260505060805 54 292 0.0 0.0 0.00 0.00 0.00 56 1004.6
20260505060304 54 292 0.0 0.0 0.00 0.00 0.00 56 1004.6
20260505055305 54 292 0.0 0.0 0.00 0.01 0.00 55 1004.6
20260505054305 54 292 0.0 0.0 0.00 0.01 0.00 56 1004.1
20260505053805 54 292 0.0 0.0 0.00 0.01 0.00 55 1004.1
20260505052305 54 292 0.0 0.0 0.00 0.01 0.00 55 1004.1
20260505050805 55 291 0.0 0.0 0.00 0.01 0.00 54 1004.1
20260505050305 55 291 0.0 0.0 0.00 0.01 0.00 55 1004.1
20260505040821 57 259 0.0 0.0 0.00 0.01 0.00 49 1004.1
20260505032804 57 80 0.0 0.0 0.00 0.01 0.01 48 1003.5
20260505032305 57 80 0.0 0.0 0.00 0.01 0.01 48 1003.5
20260505030804 57 43 0.0 0.0 0.00 0.01 0.01 46 1003.5
20260505023804 58 22 0.0 0.0 0.00 0.01 0.01 43 1003.5
20260505022804 58 37 0.0 0.0 0.00 0.01 0.01 43 1003.5
20260505022305 59 37 0.0 0.0 0.00 0.01 0.01 42 1003.5
20260505020804 59 0 0.0 0.0 0.00 0.01 0.01 41 1003.5
20260505015804 59 0 0.0 0.0 0.00 0.01 0.01 40 1003.2
20260505014804 60 0 0.0 0.0 0.00 0.01 0.01 40 1003.2
20260505014304 60 0 0.0 0.0 0.00 0.01 0.01 40 1003.2
20260505013304 60 0 0.0 0.0 0.00 0.01 0.01 38 1003.2
20260505012305 60 0 0.0 0.0 0.00 0.01 0.01 38 1003.2
20260505011804 61 0 0.0 0.0 0.00 0.01 0.01 37 1003.2
20260505011306 61 0 0.0 0.0 0.00 0.01 0.01 37 1003.2
20260505010805 61 0 0.0 0.0 0.00 0.01 0.01 37 1003.1
20260505004304 62 0 0.0 0.0 0.00 0.01 0.01 36 1002.9
20260505003304 62 0 0.0 0.0 0.00 0.01 0.01 35 1002.7
20260505001804 63 0 0.0 0.0 0.00 0.01 0.01 34 1002.6
20260505001304 63 0 0.0 0.0 0.00 0.01 0.01 34 1002.5
20260505000805 63 0 0.0 0.0 0.00 0.01 0.01 34 1002.5
20260504234304 63 0 0.0 3.0 0.00 0.01 0.01 36 1001.5
20260504233804 63 224 0.0 0.0 0.00 0.01 0.01 35 1001.5
20260504231805 64 224 0.0 3.0 0.00 0.01 0.01 33 1001.5
20260504231304 64 331 0.0 0.0 0.00 0.01 0.01 35 1001.5
20260504230804 64 303 0.0 0.0 0.00 0.01 0.01 34 1001.5
20260504223804 67 51 0.0 3.0 0.00 0.01 0.01 32 1001.3
20260504223304 67 53 0.0 0.0 0.00 0.01 0.01 31 1001.3
20260504222305 68 184 1.0 6.0 0.00 0.01 0.01 28 1001.3
20260504221304 68 88 0.0 3.0 0.00 0.01 0.01 27 1001.3
20260504220804 68 39 0.0 6.0 0.00 0.01 0.01 27 1001.3
20260504220305 68 144 0.0 1.0 0.00 0.01 0.01 27 1002.1
20260504212804 69 148 0.0 8.0 0.00 0.01 0.01 26 1002.1
20260504211804 69 281 1.0 6.0 0.00 0.01 0.01 25 1002.1